Time,TemperatureF,DewpointF,PressureIn,WindDirection,WindDirectionDegrees,WindSpeedMPH,WindSpeedGustMPH,Humidity,HourlyPrecipIn,Conditions,Clouds,dailyrainin,SoftwareType,DateUTC
2013-06-03 00:00:00,72.0,66.0,30.25,West,280,10.0,-999.0,83,-99.99,,,-99.99,,2013-06-03 00:00:00,
2013-06-03 00:42:00,72.0,66.0,30.25,West,280,10.0,-999.0,83,-99.99,,,-99.99,,2013-06-03 00:42:00,
2013-06-03 00:51:00,72.0,66.0,30.25,West,280,10.0,-999.0,83,-99.99,,,-99.99,,2013-06-03 00:51:00,
2013-06-03 01:00:00,71.0,66.0,30.27,West,280,10.0,-999.0,85,-99.99,,,-99.99,,2013-06-03 01:00:00,
2013-06-03 01:41:00,71.0,66.0,30.27,West,280,10.0,-999.0,85,-99.99,,,-99.99,,2013-06-03 01:41:00,
2013-06-03 01:52:00,71.0,66.0,30.27,West,280,10.0,-999.0,85,-99.99,,,-99.99,,2013-06-03 01:52:00,
2013-06-03 03:00:00,70.0,66.0,30.27,West,280,10.0,-999.0,86,-99.99,,,-99.99,,2013-06-03 03:00:00,
2013-06-03 03:42:00,70.0,66.0,30.27,West,280,10.0,-999.0,86,-99.99,,,-99.99,,2013-06-03 03:42:00,
2013-06-03 03:53:00,70.0,66.0,30.27,West,280,10.0,-999.0,86,-99.99,,,-99.99,,2013-06-03 03:53:00,
2013-06-03 04:00:00,70.0,66.0,30.27,West,270,10.0,-999.0,86,-99.99,,,-99.99,,2013-06-03 04:00:00,
2013-06-03 04:52:00,70.0,66.0,30.27,West,270,10.0,-999.0,86,-99.99,,,-99.99,,2013-06-03 04:52:00,
2013-06-03 05:00:00,72.0,66.0,30.27,West,270,10.0,-999.0,83,-99.99,,,-99.99,,2013-06-03 05:00:00,
2013-06-03 05:32:00,72.0,66.0,30.27,West,270,10.0,-999.0,83,-99.99,,,-99.99,,2013-06-03 05:32:00,
2013-06-03 05:42:00,72.0,66.0,30.27,West,270,10.0,-999.0,83,-99.99,,,-99.99,,2013-06-03 05:42:00,
2013-06-03 05:52:00,72.0,66.0,30.27,West,270,10.0,-999.0,83,-99.99,,,-99.99,,2013-06-03 05:52:00,
2013-06-03 06:00:00,72.0,66.0,30.27,West,270,10.0,-999.0,83,-99.99,,,-99.99,,2013-06-03 06:00:00,
2013-06-03 06:41:00,72.0,66.0,30.27,West,270,10.0,-999.0,83,-99.99,,,-99.99,,2013-06-03 06:41:00,
2013-06-03 06:51:00,72.0,66.0,30.27,West,270,10.0,-999.0,83,-99.99,,,-99.99,,2013-06-03 06:51:00,
2013-06-03 07:00:00,71.0,64.0,30.24,West,270,10.0,-999.0,80,-99.99,,,-99.99,,2013-06-03 07:00:00,
2013-06-03 07:41:00,71.0,64.0,30.24,West,270,10.0,-999.0,80,-99.99,,,-99.99,,2013-06-03 07:41:00,
2013-06-03 07:52:00,71.0,64.0,30.24,West,270,10.0,-999.0,80,-99.99,,,-99.99,,2013-06-03 07:52:00,
2013-06-03 10:00:00,70.0,64.0,30.15,South,190,15.0,-999.0,81,-99.99,,,-99.99,,2013-06-03 10:00:00,
2013-06-03 10:32:00,70.0,64.0,30.15,South,190,15.0,-999.0,81,-99.99,,,-99.99,,2013-06-03 10:32:00,
2013-06-03 10:42:00,70.0,64.0,30.15,South,190,15.0,-999.0,81,-99.99,,,-99.99,,2013-06-03 10:42:00,
2013-06-03 10:52:00,70.0,64.0,30.15,South,190,15.0,-999.0,81,-99.99,,,-99.99,,2013-06-03 10:52:00,
2013-06-03 11:52:00,70.0,68.0,30.15,WSW,240,15.0,-999.0,94,-99.99,,,-99.99,,2013-06-03 11:52:00,
2013-06-03 12:00:00,71.0,66.0,30.15,SSW,200,15.0,-999.0,84,-99.99,,,-99.99,,2013-06-03 12:00:00,
2013-06-03 12:21:00,71.0,66.0,30.15,SSW,200,15.0,-999.0,84,-99.99,,,-99.99,,2013-06-03 12:21:00,
2013-06-03 12:32:00,71.0,66.0,30.15,SSW,200,15.0,-999.0,84,-99.99,,,-99.99,,2013-06-03 12:32:00,
2013-06-03 12:42:00,71.0,66.0,30.15,SSW,200,15.0,-999.0,84,-99.99,,,-99.99,,2013-06-03 12:42:00,
2013-06-03 12:52:00,71.0,66.0,30.15,SSW,200,15.0,-999.0,84,-99.99,,,-99.99,,2013-06-03 12:52:00,
2013-06-03 13:00:00,74.0,68.0,30.22,SW,230,15.0,-999.0,82,-99.99,,,-99.99,,2013-06-03 13:00:00,
2013-06-03 13:32:00,74.0,68.0,30.22,SW,230,15.0,-999.0,82,-99.99,,,-99.99,,2013-06-03 13:32:00,
2013-06-03 13:42:00,74.0,68.0,30.22,SW,230,15.0,-999.0,82,-99.99,,,-99.99,,2013-06-03 13:42:00,
2013-06-03 13:52:00,74.0,68.0,30.22,SW,230,15.0,-999.0,82,-99.99,,,-99.99,,2013-06-03 13:52:00,
2013-06-03 14:00:00,72.0,70.0,30.22,SW,230,15.0,-999.0,91,-99.99,,,-99.99,,2013-06-03 14:00:00,
2013-06-03 14:41:00,72.0,70.0,30.22,SW,230,15.0,-999.0,91,-99.99,,,-99.99,,2013-06-03 14:41:00,
2013-06-03 14:52:00,72.0,70.0,30.22,SW,230,15.0,-999.0,91,-99.99,,,-99.99,,2013-06-03 14:52:00,
2013-06-03 15:00:00,72.0,66.0,30.22,SW,230,15.0,-999.0,82,-99.99,,,-99.99,,2013-06-03 15:00:00,
2013-06-03 15:21:00,72.0,66.0,30.22,SW,230,15.0,-999.0,82,-99.99,,,-99.99,,2013-06-03 15:21:00,
2013-06-03 15:33:00,72.0,66.0,30.22,SW,230,15.0,-999.0,82,-99.99,,,-99.99,,2013-06-03 15:33:00,
2013-06-03 15:42:00,72.0,66.0,30.22,SW,230,15.0,-999.0,82,-99.99,,,-99.99,,2013-06-03 15:42:00,
2013-06-03 15:53:00,72.0,66.0,30.22,SW,230,15.0,-999.0,82,-99.99,,,-99.99,,2013-06-03 15:53:00,
2013-06-03 16:00:00,75.0,70.0,30.20,SW,230,15.0,-999.0,84,-99.99,,,-99.99,,2013-06-03 16:00:00,
2013-06-03 16:12:00,75.0,70.0,30.20,SW,230,15.0,-999.0,84,-99.99,,,-99.99,,2013-06-03 16:12:00,
2013-06-03 16:22:00,75.0,70.0,30.20,SW,230,15.0,-999.0,84,-99.99,,,-99.99,,2013-06-03 16:22:00,
2013-06-03 16:32:00,75.0,70.0,30.20,SW,230,15.0,-999.0,84,-99.99,,,-99.99,,2013-06-03 16:32:00,
2013-06-03 16:42:00,75.0,70.0,30.20,SW,230,15.0,-999.0,84,-99.99,,,-99.99,,2013-06-03 16:42:00,
2013-06-03 16:53:00,75.0,70.0,30.20,SW,230,15.0,-999.0,84,-99.99,,,-99.99,,2013-06-03 16:53:00,
2013-06-03 18:00:00,77.0,70.0,30.19,West,260,15.0,-999.0,78,-99.99,,,-99.99,,2013-06-03 18:00:00,
2013-06-03 18:42:00,77.0,70.0,30.19,West,260,15.0,-999.0,78,-99.99,,,-99.99,,2013-06-03 18:42:00,
2013-06-03 18:52:00,77.0,70.0,30.19,West,260,15.0,-999.0,78,-99.99,,,-99.99,,2013-06-03 18:52:00,
2013-06-03 19:00:00,77.0,70.0,30.19,West,260,10.0,-999.0,78,-99.99,,,-99.99,,2013-06-03 19:00:00,
2013-06-03 19:42:00,77.0,70.0,30.19,West,260,10.0,-999.0,78,-99.99,,,-99.99,,2013-06-03 19:42:00,
2013-06-03 19:52:00,77.0,70.0,30.19,West,260,10.0,-999.0,78,-99.99,,,-99.99,,2013-06-03 19:52:00,
2013-06-03 21:00:00,77.0,70.0,30.14,West,260,10.0,-999.0,78,-99.99,,,-99.99,,2013-06-03 21:00:00,
2013-06-03 21:43:00,77.0,70.0,30.14,West,260,10.0,-999.0,78,-99.99,,,-99.99,,2013-06-03 21:43:00,
2013-06-03 21:52:00,77.0,70.0,30.14,West,260,10.0,-999.0,78,-99.99,,,-99.99,,2013-06-03 21:52:00,
2013-06-03 22:00:00,77.0,70.0,29.98,South,180,22.0,-999.0,78,-99.99,,,-99.99,,2013-06-03 22:00:00,
2013-06-03 22:41:00,77.0,70.0,29.98,South,180,22.0,-999.0,78,-99.99,,,-99.99,,2013-06-03 22:41:00,
2013-06-03 22:52:00,77.0,70.0,29.98,South,180,22.0,-999.0,78,-99.99,,,-99.99,,2013-06-03 22:52:00,
2013-06-03 23:00:00,76.0,70.0,29.99,South,170,22.0,-999.0,81,-99.99,,,-99.99,,2013-06-03 23:00:00,
2013-06-03 23:22:00,76.0,70.0,29.99,South,170,22.0,-999.0,81,-99.99,,,-99.99,,2013-06-03 23:22:00,
2013-06-03 23:31:00,76.0,70.0,29.99,South,170,22.0,-999.0,81,-99.99,,,-99.99,,2013-06-03 23:31:00,
2013-06-03 23:42:00,76.0,70.0,29.99,South,170,22.0,-999.0,81,-99.99,,,-99.99,,2013-06-03 23:42:00,
2013-06-03 23:52:00,76.0,70.0,29.99,South,170,22.0,-999.0,81,-99.99,,,-99.99,,2013-06-03 23:52:00,